Location: Unspecified
(50.1700°N, 6.8600°E)
Time: 09:21:18
(UTC+00:00)

MSX - Pass Details

Date: 24 January 2019
Orbit: 894 x 907 km, 98.7° (Epoch: 20 February)

Event Time Altitude Azimuth Distance (km) Brightness Sun altitude
Rises 04:37:29 0° 14° (NNE) 3,526 7.1 -25.3°
Reaches altitude 10° 04:39:54 10° 13° (NNE) 2,580 6.3 -24.9°
Maximum altitude 04:45:38 79° 288° (WNW) 919 3.7 -24.0°
Drops below altitude 10° 04:51:21 10° 203° (SSW) 2,560 6.0 -23.1°
Sets 04:53:44 0° 202° (SSW) 3,496 6.7 -22.7°
